Volver al catálogo

STARLINK-4740

ActivoComunicacionesVLEO
NORAD 53871·PAYLOAD·🇺🇸 United States

Lanzado Sep 19, 2022 desde Cape Canaveral Space Force Station

Loading…

Próximos Pases (próximas 24 horas)

TLE

ActualizadoSource: CelesTrak SupGP

Época: Sep 15, 2026, 02:03 UTC

1 53871C 22114BF  26258.08590278  .00048709  00000+0  14390-2 0  2580
2 53871  53.1574 118.9625 0001415  82.3154  95.2594 15.34368442    12

Sigue STARLINK-4740 en tiempo real con AllMySat

Download on the App Store